Other Public Products
Issued by NWS Charleston, SC

Home | Current Version | Previous Version | Text Only | Print | Product List | Glossary On
Versions: 1 2 3 4 5 6 7 8 9 10 11 12 13 14 15 16 17 18 19 20 21 22 23 24 25 26 27 28 29 30 31 32 33 34 35 36 37 38 39 40 41 42 43 44 45 46 47 48 49 50
235
FPUS82 KCHS 211312
OPUCHS

TEST...KCHS/KSAV Gateway Observations...TEST
National Weather Service Charleston SC
800 AM EST TUE FEB 21 2017

NOTE: "fair" indicates few or no clouds below 12,000 feet with no
significant weather and/or obstructions to visibility.

SCZ050-WAZ558-NCZ071-TXZ119-213-PAZ071-DCZ001-FLZ074-172-MI076-
NYZ176-178-MAZ016-IL014-TNZ027-NJZ106-GAZ044-MD014-211400-
...Gateway Observations for Charleston International...

CITY           SKY/WX    TMP DP  RH WIND       PRES   REMARKS
Chas Airport   CLOUDY    58  54  86 E7        30.18S
Seattle        LGT RAIN  41  40  96 N7        29.72R
Charlotte      MOSUNNY   53  42  66 E8        30.24R
Dallas DFW     PTCLDY    52  47  83 NW10      29.93R
Dallas Love    PTCLDY    52  48  86 NW9       29.94R
Philladelphia  PTSUNNY   38  21  50 E7        30.39R WCI  33
Wash National  CLOUDY    42  27  55 E7        30.35S
Baltimore      CLOUDY    40  22  48 E8        30.36R WCI  34
Miami          CLOUDY    68  59  73 CALM      30.09R
Detroit        CLOUDY    40  33  76 CALM      29.99S
Newark         CLOUDY    36  17  46 N5        30.40R WCI  32
Laguardia      CLOUDY    37  19  48 NE7       30.39R WCI  32
J F K          CLOUDY    36  21  54 NE5       30.41R WCI  32
Boston Logan   MOSUNNY   33  17  51 NW7       30.41R WCI  27
Ft. Lauderdale CLOUDY    73  59  61 NE7       30.09R
Chicago O`Hare LGT RAIN  55  52  89 SW3       29.92R FOG
Chicago Midway LGT RAIN  54  51  90 S7        29.93R FOG
Houston Bush   PTCLDY    55  55 100 CALM      29.92F FOG
Houston Hobby  MOCLDY    59  58  96 S7        29.92S
Nashville      CLOUDY    58  46  64 SE7       30.00R
Atlanta        MOCLDY    56  48  74 SE12      30.11S

$$

GAZ044-118-TXZ119-213-NCZ071-DCZ001-MDZ014-506-PAZ021-071-NJZ106-
NYZ176-178-MAZ106-OHZ011-021-055-MIZ076-KYZ091-ILZ014-INZ047-
MNZ060-211400-
...Gateway Observations for Savannah International...

CITY           SKY/WX    TMP DP  RH WIND       PRES   REMARKS
Savannah Arpt  CLOUDY    59  56  89 E5        30.16S
Atlanta        MOCLDY    56  48  74 SE12      30.11S
Charlotte      MOSUNNY   53  42  66 E8        30.24R
Dallas DFW     PTCLDY    52  47  83 NW10      29.93R
Houston Bush   PTCLDY    55  55 100 CALM      29.92F FOG
Wash National  CLOUDY    42  27  55 E7        30.35S
Wash Dulles    CLOUDY    40  25  55 SE5       30.34S WCI  37
Baltimore      CLOUDY    40  22  48 E8        30.36R WCI  34
Philadelphia   PTSUNNY   38  21  50 E7        30.39R WCI  33
Newark         CLOUDY    36  17  46 N5        30.40R WCI  32
Laguardia      CLOUDY    37  19  48 NE7       30.39R WCI  32
J F K          CLOUDY    36  21  54 NE5       30.41R WCI  32
Boston         MOSUNNY   33  17  51 NW7       30.41R WCI  27
Pittsburg      CLOUDY    48  32  53 SE6       30.08S
Akron          MOCLDY    49  34  56 S9        30.05R
Cleveland      CLOUDY    50  33  52 S7        30.04R
Cincinnati     CLOUDY    51  42  71 S7        30.03R
Columbus       PTCLDY    41  40  94 S3        30.03S
Detroit        CLOUDY    40  33  76 CALM      29.99S
Chicago O`Hare LGT RAIN  55  52  89 SW3       29.92R FOG
Minneapolis    FOG       34  32  92 VRB3      29.89F VSB 1/2
Indianapolis   CLOUDY    52  44  74 SE8       29.98R

$$




USA.gov is the U.S. government's official web portal to all federal, state and local government web resources and services.